TimeGST,TemperatureF,Dew PointF,Humidity,Sea Level PressureIn,VisibilityMPH,Wind Direction,Wind SpeedMPH,Gust SpeedMPH,PrecipitationIn,Events,Conditions,WindDirDegrees,DateUTC
12:00 AM,91.4,75.2,59,29.50,-9999.0,East,8.1,-,N/A,,Clear,90,2013-09-05 20:00:00
1:00 AM,89,75,55,29.51,6,NE,6.9,,,,,40,2013-09-05 21:00:00
1:00 AM,89.6,75.2,62,29.50,-9999.0,NE,6.9,-,N/A,,Clear,40,2013-09-05 21:00:00
2:00 AM,89.6,73.4,59,29.47,-9999.0,East,5.8,-,N/A,,Clear,80,2013-09-05 22:00:00
3:00 AM,93.2,68.0,44,29.47,-9999.0,East,5.8,-,N/A,,Clear,80,2013-09-05 23:00:00
4:00 AM,90,64,32,29.49,6,ENE,8.1,,,,,70,2013-09-06 00:00:00
4:00 AM,89.6,64.4,43,29.47,-9999.0,ENE,8.1,-,N/A,,Clear,70,2013-09-06 00:00:00
5:00 AM,89.6,60.8,38,29.47,-9999.0,ESE,11.5,-,N/A,,Clear,110,2013-09-06 01:00:00
6:00 AM,91.4,60.8,36,29.50,3.7,SE,18.4,-,N/A,,Unknown,130,2013-09-06 02:00:00
6:12 AM,89.6,62.6,40,29.50,2.5,SE,19.6,-,N/A,,Unknown,130,2013-09-06 02:12:00
7:00 AM,90,63,30,29.52,2,ESE,19.6,,,,Widespread Dust,120,2013-09-06 03:00:00
7:00 AM,89.6,62.6,40,29.50,2.5,ESE,19.6,-,N/A,,Unknown,120,2013-09-06 03:00:00
7:41 AM,93.2,60.8,34,29.53,1.6,ESE,17.3,-,N/A,,Unknown,120,2013-09-06 03:41:00
8:00 AM,93.2,60.8,34,29.53,1.2,ESE,15.0,-,N/A,,Unknown,120,2013-09-06 04:00:00
9:00 AM,96.8,59.0,28,29.56,0.9,ESE,12.7,-,N/A,,Unknown,120,2013-09-06 05:00:00
9:36 AM,100.4,55.4,22,29.56,1.9,SE,10.4,-,N/A,,Unknown,140,2013-09-06 05:36:00
10:00 AM,100.4,55.4,22,29.56,2.5,SSE,11.5,-,N/A,,Unknown,160,2013-09-06 06:00:00
11:00 AM,104.0,53.6,19,29.56,2.8,SSE,12.7,-,N/A,,Unknown,160,2013-09-06 07:00:00
12:00 PM,107.6,50.0,15,29.53,3.1,SSE,13.8,-,N/A,,Unknown,160,2013-09-06 08:00:00
1:00 PM,109.4,51.8,15,29.53,3.1,South,11.5,-,N/A,,Unknown,170,2013-09-06 09:00:00
2:00 PM,111.2,50.0,13,29.50,3.7,SSE,12.7,-,N/A,,Unknown,160,2013-09-06 10:00:00
3:00 PM,113.0,50.0,13,29.47,4.3,SSE,9.2,-,N/A,,Unknown,150,2013-09-06 11:00:00
3:14 PM,109.4,62.6,22,29.47,4.3,NNW,15.0,-,N/A,,Unknown,340,2013-09-06 11:14:00
4:00 PM,107.6,62.6,23,29.47,4.3,North,16.1,-,N/A,,Unknown,350,2013-09-06 12:00:00
5:00 PM,104.0,75.2,40,29.47,4.3,NNW,17.3,-,N/A,,Unknown,340,2013-09-06 13:00:00
6:00 PM,100.4,77.0,47,29.50,4.3,North,13.8,-,N/A,,Unknown,350,2013-09-06 14:00:00
7:00 PM,97,80,49,29.51,5,North,11.5,,,,Widespread Dust,350,2013-09-06 15:00:00
7:00 PM,96.8,80.6,60,29.50,5.0,North,11.5,-,N/A,,Unknown,350,2013-09-06 15:00:00
8:00 PM,95.0,80.6,63,29.53,5.0,North,9.2,-,N/A,,Unknown,360,2013-09-06 16:00:00
9:00 PM,95.0,78.8,59,29.53,5.6,NNE,10.4,-,N/A,,Unknown,20,2013-09-06 17:00:00
10:00 PM,95.0,77.0,56,29.56,-9999.0,NNE,5.8,-,N/A,,Clear,30,2013-09-06 18:00:00
11:00 PM,98.6,62.6,30,29.56,-9999.0,SE,5.8,-,N/A,,Clear,130,2013-09-06 19:00:00